{"data":{"norad_id":52704,"epoch":"2026-05-24T23:57:03.053664Z","epoch_age_seconds":69210,"freshness":"FRESH","line1":"1 52704U 22053BA  26144.99795201  .00001349  00000+0  10287-3 0  9996","line2":"2 52704  53.2124 151.5603 0000851  75.3445 284.7642 15.08828279222830","mean_motion":15.08828279,"eccentricity":8.51e-5,"inclination_deg":53.2124,"raan_deg":151.5603,"arg_perigee_deg":75.3445,"mean_anomaly_deg":284.7642,"bstar":0.00010287,"rev_number":22283,"period_min":95.438296063379,"perigee_km":539.19050093402,"apogee_km":540.36793027392,"semimajor_km":6917.916215604,"source":"CELESTRAK","updated_at":"2026-05-25T13:38:17.239007Z"}}